Regional Weather Roundup
Issued by NWS

Home | Current Version | Previous Version | Text Only | Print | Product List | Glossary Off
Versions: 1 2 3 4 5 6 7 8 9 10 11 12 13 14 15 16 17 18 19 20 21 22 23 24 25 26 27 28 29 30 31 32 33 34 35 36 37 38 39 40 41 42 43 44 45 46 47 48 49 50

000
ASUS45 KCYS 260810
RWRWY

WYOMING REGIONAL WEATHER ROUNDUP
NATIONAL WEATHER SERVICE CHEYENNE WY
200 AM MDT THU MAR 26 2015

NOTE:  "FAIR" INDICATES FEW OR NO CLOUDS BELOW 12,000 FEET
WITH NO SIGNIFICANT WEATHER AND/OR OBSTRUCTIONS TO VISIBILITY.

WYZ001-260900-
YELLOWSTONE NATIONAL PARK

CITY           SKY/WX    TMP DP  RH WIND       PRES   REMARKS
LK YELLOWSTONE   N/A     22  17  81 CALM      30.35R
W YELLOWSTONE  NOT AVBL

$$
WYZ002>013-054>058-071-098>099-260900-
NORTHERN WYOMING

CITY           SKY/WX    TMP DP  RH WIND       PRES   REMARKS
JACKSON        FAIR      27  19  74 N15       30.34R WCI  15
CODY           FAIR      43  18  36 W15G26    30.18R
GREYBULL       CLOUDY    42  22  44 CALM      30.17R
WORLAND        MOCLDY    33  24  69 S5        30.17F WCI  29
SHERIDAN       CLOUDY    40  30  67 NW3       30.13R
BUFFALO        CLOUDY    37  27  67 CALM      30.13F
GILLETTE       CLOUDY    37  27  67 SW9       30.12F WCI  30
HULETT         CLOUDY    37  30  75 SW6       30.13S WCI  33
NEWCASTLE      FAIR      30  23  74 NE3       30.17S

$$
WYZ014>020-022>026-101>103-260900-
CENTRAL WYOMING

CITY           SKY/WX    TMP DP  RH WIND       PRES   REMARKS
BIG PINEY      FAIR      20  13  74 N7        30.33F WCI  11
PINEDALE       FAIR      23  19  86 W7        30.32F WCI  15
DUBOIS         FAIR      30  14  51 W16G22    30.27F WCI  19
LANDER         FAIR      33  15  47 CALM      30.20F
RIVERTON       FAIR      39  16  39 NW30G38   30.19F WCI  27
CASPER         FAIR      31  21  66 W12       30.18F WCI  22
DOUGLAS        FAIR      23  20  88 NW3       30.17F

$$
WYZ021-027>030-104>119-260900-
SOUTHERN WYOMING

CITY           SKY/WX    TMP DP  RH WIND       PRES   REMARKS
EVANSTON       FAIR      27  17  66 SW8       30.39S WCI  19
FORT BRIDGER   FAIR      32  19  57 W16G23    30.41R WCI  21
ROCK SPRINGS   FAIR      29  18  63 W20       30.34R WCI  16
DIXON          FAIR      26  17  68 CALM      30.37R
RAWLINS        FAIR      29  16  58 W13       30.27R WCI  19
SARATOGA       FAIR      28  16  59 SW10      30.30R WCI  19
LARAMIE        FAIR      28  14  55 NW14      30.20S WCI  17
CHEYENNE       FAIR      24  22  91 SW6       30.19S WCI  17
TORRINGTON     FAIR      27  24  89 SE3       30.18F
PINE BLUFFS    FAIR      27  25  93 S5        30.22R WCI  21

$$


USA.gov is the U.S. government's official web portal to all federal, state and local government web resources and services.